W2GUX Hawthorne NJ US current weather conditions

sailwx.info

Wind from 285 at 0 knots gusting 2

Air temperature 20.0° C
Dewpoint 7.7° C

Last reported at 2019-Oct-21 19:55 UTC.
Time now 2019-Oct-21 21:10 UTC

Location: N 40°58' W 074°09'.
View on Google Maps.

See reports from other nearby stations

  
Tides and Currents Weather Stations Pressure Air Temp Water Temp Dewpoint Dewpoint Depression Visibility Wind Speed Wind Dir Waves Ship Positions
date/time (UTC)wind fromknots sea level pressurealtimeterstation pressurevisibilityair tempwater tempwave heightnotes
2019-Oct-21 19:55 285 0 gusting 2 20.0
2019-Oct-21 19:45 293 20.0
2019-Oct-21 19:40 175 20.0
2019-Oct-21 19:35 175 0 gusting 1 20.0
2019-Oct-21 19:25 212 0 gusting 2 20.0
2019-Oct-21 19:15 280 20.0
2019-Oct-21 19:10 249 20.0
2019-Oct-21 18:55 037 20.0
2019-Oct-21 18:50 025 19.4
2019-Oct-21 18:45 039 0 gusting 2 19.4
2019-Oct-21 18:40 132 0 gusting 2 19.4
2019-Oct-21 18:35 137 0 gusting 3 19.4
2019-Oct-21 18:30 096 0 gusting 3 19.4
2019-Oct-21 18:25 074 0 gusting 2 20.0
2019-Oct-21 18:20 047 0 gusting 5 20.0
2019-Oct-21 18:10 046 0 gusting 2 20.0
2019-Oct-21 18:00 023 1 gusting 5 19.4
2019-Oct-21 17:55 018 1 gusting 6 19.4
2019-Oct-21 17:45 034 1 gusting 6 19.4
2019-Oct-21 17:20 063 1 gusting 5 18.9
2019-Oct-21 17:15 050 1 gusting 5 18.9
2019-Oct-21 17:10 022 2 gusting 7 18.9
2019-Oct-21 16:50 049 2 gusting 6 18.3
2019-Oct-21 16:45 045 2 gusting 6 18.3
2019-Oct-21 16:35 080 2 gusting 5 18.3
2019-Oct-21 16:25 043 1 gusting 6 18.3
2019-Oct-21 16:20 042 1 gusting 6 17.8
2019-Oct-21 16:10 030 2 gusting 6 17.8
2019-Oct-21 16:05 029 2 gusting 6 17.8
2019-Oct-21 16:00 031 2 gusting 6 17.8
2019-Oct-21 15:55 042 1 gusting 6 17.8
2019-Oct-21 15:50 043 0 gusting 4 17.8
2019-Oct-21 15:40 061 1 gusting 5 17.2
2019-Oct-21 15:35 066 1 gusting 4 17.2
2019-Oct-21 15:30 048 1 gusting 4 17.2
2019-Oct-21 15:25 048 1 gusting 4 16.7
2019-Oct-21 15:20 047 1 gusting 4 16.7
2019-Oct-21 15:10 051 1 gusting 6 16.1
2019-Oct-21 15:00 050 0 gusting 6 16.1
2019-Oct-21 14:50 031 1 gusting 6 15.6
2019-Oct-21 14:45 018 2 gusting 8 15.6
2019-Oct-21 14:35 041 0 gusting 5 15.6
2019-Oct-21 14:30 046 1 gusting 5 15.0
2019-Oct-21 14:20 061 1 gusting 5 15.0
2019-Oct-21 14:15 050 0 gusting 4 15.0
2019-Oct-21 14:10 044 0 gusting 2 15.0
2019-Oct-21 14:00 042 0 gusting 8 14.4
2019-Oct-21 13:55 021 14.4
2019-Oct-21 13:50 008 13.9
2019-Oct-21 13:45 017 0 gusting 4 13.9
2019-Oct-21 13:40 018 0 gusting 5 13.3
2019-Oct-21 13:35 015 13.3
2019-Oct-21 13:30 012 13.3
2019-Oct-21 13:25 003 0 gusting 4 12.8
2019-Oct-21 13:20 357 0 gusting 4 12.2
2019-Oct-21 13:15 024 0 gusting 5 12.2
2019-Oct-21 12:40 017 0 gusting 4 11.1
2019-Oct-21 12:35 017 0 gusting 5 10.6
2019-Oct-21 12:30 010 0 gusting 6 10.6
2019-Oct-21 12:25 020 0 gusting 6 10.6
2019-Oct-21 12:20 031 0 gusting 2 10.6
2019-Oct-21 12:05 025 10.0
2019-Oct-21 12:00 005 0 gusting 5 10.0
2019-Oct-21 11:45 009 0 gusting 6 9.4
2019-Oct-21 11:30 035 0 gusting 5 9.4
2019-Oct-21 11:25 035 0 gusting 5 9.4
2019-Oct-21 11:20 028 0 gusting 4 9.4
2019-Oct-21 11:15 020 0 gusting 5 9.4
2019-Oct-21 11:10 017 0 gusting 5 9.4
2019-Oct-21 11:00 024 9.4
2019-Oct-21 10:55 030 0 gusting 2 9.4
2019-Oct-21 10:40 019 0 gusting 5 9.4
2019-Oct-21 10:35 023 1 gusting 6 9.4
2019-Oct-21 10:30 027 0 gusting 6 9.4
2019-Oct-21 10:25 021 0 gusting 4 9.4
2019-Oct-21 10:20 022 0 gusting 4 9.4
2019-Oct-21 10:15 016 0 gusting 5 9.4
2019-Oct-21 10:00 018 0 gusting 5 9.4
2019-Oct-21 09:55 022 0 gusting 5 9.4
2019-Oct-21 09:50 013 0 gusting 5 9.4
2019-Oct-21 09:45 009 0 gusting 4 9.4
2019-Oct-21 09:40 014 0 gusting 4 9.4
2019-Oct-21 09:35 007 0 gusting 4 9.4
2019-Oct-21 09:30 358 0 gusting 6 9.4
2019-Oct-21 09:25 007 0 gusting 6 9.4
2019-Oct-21 09:20 025 0 gusting 2 9.4
2019-Oct-21 09:15 024 9.4
2019-Oct-21 09:10 024 9.4
2019-Oct-21 09:05 024 9.4
2019-Oct-21 09:00 025 9.4
2019-Oct-21 08:55 033 9.4
2019-Oct-21 08:45 020 0 gusting 6 9.4
2019-Oct-21 08:40 021 9.4
2019-Oct-21 08:25 032 0 gusting 4 9.4
2019-Oct-21 08:20 015 0 gusting 5 9.4
2019-Oct-21 08:10 349 0 gusting 5 9.4
2019-Oct-21 08:05 355 0 gusting 5 9.4
2019-Oct-21 08:00 006 0 gusting 5 9.4
2019-Oct-21 07:55 009 9.4
2019-Oct-21 07:50 008 9.4
2019-Oct-21 07:45 006 9.4
2019-Oct-21 07:40 004 9.4
2019-Oct-21 07:35 358 9.4
2019-Oct-21 07:25 011 10.0
2019-Oct-21 07:20 009 10.0
2019-Oct-21 07:15 023 10.0
2019-Oct-21 07:10 027 0 gusting 2 10.0
2019-Oct-21 07:05 018 0 gusting 4 10.0
2019-Oct-21 06:55 014 10.0
2019-Oct-21 06:50 009 0 gusting 4 10.0
2019-Oct-21 06:35 359 0 gusting 3 10.6
2019-Oct-21 06:25 016 0 gusting 3 10.6
2019-Oct-21 06:20 021 0 gusting 2 10.6
2019-Oct-21 06:15 013 10.6
2019-Oct-21 06:10 008 10.6
2019-Oct-21 05:55 008 10.6
2019-Oct-21 05:50 003 10.6
2019-Oct-21 05:35 353 10.6
2019-Oct-21 05:15 10.6
2019-Oct-21 05:05 347 10.6
2019-Oct-21 05:00 344 11.1
2019-Oct-21 04:55 006 0 gusting 2 11.1
2019-Oct-21 04:50 013 0 gusting 4 11.1
2019-Oct-21 04:45 013 0 gusting 4 11.1
2019-Oct-21 04:40 024 11.1
2019-Oct-21 04:20 031 11.1
2019-Oct-21 04:10 030 11.1
2019-Oct-21 04:05 031 11.1
2019-Oct-21 04:00 031 11.1
2019-Oct-21 03:50 031 11.1
2019-Oct-21 03:45 031 11.1
2019-Oct-21 03:35 025 11.1
2019-Oct-21 03:25 020 11.1
2019-Oct-21 03:20 020 11.1
2019-Oct-21 03:15 021 0 gusting 2 11.1
2019-Oct-21 03:10 021 11.1
2019-Oct-21 03:00 021 11.7
2019-Oct-21 02:50 027 0 gusting 4 11.7
2019-Oct-21 02:45 026 11.7
2019-Oct-21 02:40 017 0 gusting 4 11.7
2019-Oct-21 02:35 010 0 gusting 6 11.7
2019-Oct-21 02:30 009 11.7
2019-Oct-21 02:25 015 11.7
2019-Oct-21 02:20 014 11.7
2019-Oct-21 02:10 015 12.2
2019-Oct-21 02:00 014 12.2
2019-Oct-21 01:55 014 12.2
2019-Oct-21 01:45 014 12.2
2019-Oct-21 01:35 014 12.2
2019-Oct-21 01:25 014 12.2
2019-Oct-21 01:20 015 12.2
2019-Oct-21 01:05 014 12.2
2019-Oct-21 01:00 014 12.2
2019-Oct-21 00:55 014 12.2
2019-Oct-21 00:30 015 12.2
2019-Oct-21 00:25 014 12.2
2019-Oct-21 00:15 014 12.2
2019-Oct-21 00:05 015 12.2
2019-Oct-20 23:55 015 12.2
2019-Oct-20 23:50 12.2
2019-Oct-20 23:35 014 12.2
2019-Oct-20 23:20 015 12.2
2019-Oct-20 23:15 009 12.2
2019-Oct-20 23:10 010 12.2
2019-Oct-20 23:00 028 12.2
2019-Oct-20 22:55 027 12.2
2019-Oct-20 22:45 028 12.2
2019-Oct-20 22:35 028 12.2
2019-Oct-20 22:30 028 12.2
2019-Oct-20 22:20 029 12.2
2019-Oct-20 22:15 029 12.2
2019-Oct-20 22:10 028 12.2
2019-Oct-20 22:00 028 12.2
2019-Oct-20 21:45 029 12.2
2019-Oct-20 21:35 028 12.2
2019-Oct-20 21:30 028 12.2
2019-Oct-20 21:05 013 12.2
2019-Oct-20 21:00 013 12.2
2019-Oct-20 20:55 013 12.2
2019-Oct-20 20:45 012 12.2
2019-Oct-20 20:40 011 12.2
2019-Oct-20 20:30 011 12.2
2019-Oct-20 20:25 012 12.2
2019-Oct-20 20:20 013 12.2
2019-Oct-20 19:55 013 12.2
2019-Oct-20 19:50 013 12.2
2019-Oct-20 19:45 013 12.2
2019-Oct-20 19:40 014 12.2
2019-Oct-20 19:30 013 12.2
2019-Oct-20 19:25 018 12.2
2019-Oct-20 19:00 032 12.2
2019-Oct-20 18:50 032 12.2
2019-Oct-20 18:40 031 12.2
2019-Oct-20 18:35 005 12.2
2019-Oct-20 18:30 353 12.2
2019-Oct-20 18:25 353 12.8
2019-Oct-20 18:20 353 12.8
2019-Oct-20 18:15 353 12.8
2019-Oct-20 18:00 001 12.8
2019-Oct-20 17:55 001 12.8
2019-Oct-20 17:50 12.8
2019-Oct-20 17:40 001 12.8
2019-Oct-20 17:35 001 12.8
2019-Oct-20 17:30 001 12.8
2019-Oct-20 17:25 001 12.8
2019-Oct-20 17:10 001 13.3
2019-Oct-20 17:00 001 13.3
2019-Oct-20 16:55 001 13.3
2019-Oct-20 16:45 001 13.3
2019-Oct-20 16:40 001 13.3
2019-Oct-20 16:30 001 13.3
2019-Oct-20 16:05 001 12.8
2019-Oct-20 16:00 001 12.8
2019-Oct-20 15:50 001 12.8
2019-Oct-20 15:40 359 0 gusting 4 12.2
2019-Oct-20 15:35 359 0 gusting 4 12.2
2019-Oct-20 15:25 359 12.2
2019-Oct-20 15:20 358 11.7
2019-Oct-20 15:15 358 11.7
2019-Oct-20 15:10 356 11.7
2019-Oct-20 14:50 11.1
2019-Oct-20 14:40 356 10.6
2019-Oct-20 14:35 356 10.6
2019-Oct-20 14:30 10.6
2019-Oct-20 14:20 270 10.0
2019-Oct-20 14:15 258 10.0
2019-Oct-20 14:05 210 10.0
2019-Oct-20 14:00 211 9.4
2019-Oct-20 13:50 8.9
2019-Oct-20 13:30 8.3
2019-Oct-20 13:25 8.3
2019-Oct-20 13:20 7.8
2019-Oct-20 13:15 7.8
2019-Oct-20 12:50 6.7
2019-Oct-20 12:45 6.1
2019-Oct-20 12:20 4.4
2019-Oct-20 12:10 4.4
2019-Oct-20 12:05 3.9
2019-Oct-20 12:00 3.9
2019-Oct-20 11:55 3.9
2019-Oct-20 11:50 3.9
2019-Oct-20 11:30 3.9
2019-Oct-20 11:25 3.3
2019-Oct-20 11:20 3.3
2019-Oct-20 11:15 3.3
2019-Oct-20 11:10 3.3
2019-Oct-20 11:05 3.3
2019-Oct-20 11:00 3.3
2019-Oct-20 10:50 3.3
2019-Oct-20 10:45 3.9
2019-Oct-20 10:40 3.9
2019-Oct-20 10:25 3.9
2019-Oct-20 10:20 3.9
2019-Oct-20 10:05 3.9
2019-Oct-20 09:55 3.9
2019-Oct-20 09:50 3.9
2019-Oct-20 09:45 3.9
2019-Oct-20 09:35 3.9
2019-Oct-20 09:20 3.9
2019-Oct-20 09:15 3.9
2019-Oct-20 09:10 3.9
2019-Oct-20 09:05 3.9
2019-Oct-20 09:00 3.9
2019-Oct-20 08:55 4.4
2019-Oct-20 08:40 4.4
2019-Oct-20 08:35 4.4
2019-Oct-20 08:30 4.4
2019-Oct-20 08:25 4.4
2019-Oct-20 08:20 4.4
2019-Oct-20 08:15 4.4
2019-Oct-20 08:10 4.4
2019-Oct-20 08:05 4.4
2019-Oct-20 07:50 4.4
2019-Oct-20 07:45 4.4
2019-Oct-20 07:40 4.4
2019-Oct-20 07:35 4.4
2019-Oct-20 07:30 4.4
2019-Oct-20 07:25 5.0
2019-Oct-20 07:20 5.0
2019-Oct-20 07:10 5.0
2019-Oct-20 07:05 5.0
2019-Oct-20 07:00 5.0
2019-Oct-20 06:55 5.0
2019-Oct-20 06:50 5.0
2019-Oct-20 06:45 5.0
2019-Oct-20 06:25 5.6
2019-Oct-20 06:15 5.6
2019-Oct-20 06:10 5.6
2019-Oct-20 06:05 5.6
2019-Oct-20 05:55 5.6
2019-Oct-20 05:45 5.6
2019-Oct-20 05:30 5.6
2019-Oct-20 05:25 5.6
2019-Oct-20 05:10 5.6
2019-Oct-20 05:00 5.6
2019-Oct-20 04:55 6.1
2019-Oct-20 04:40 6.1
2019-Oct-20 04:35 6.1
2019-Oct-20 04:30 6.1
2019-Oct-20 04:25 6.1
2019-Oct-20 04:20 6.1
2019-Oct-20 04:15 6.1
2019-Oct-20 04:10 6.7
2019-Oct-20 04:00 6.7
2019-Oct-20 03:50 6.7
2019-Oct-20 03:45 6.7
2019-Oct-20 03:40 6.7
2019-Oct-20 03:30 6.7
2019-Oct-20 03:25 6.7
2019-Oct-20 03:15 7.2
2019-Oct-20 03:10 7.2
2019-Oct-20 02:55 7.2
2019-Oct-20 02:50 7.8
2019-Oct-20 02:45 7.8
2019-Oct-20 02:35 7.8
2019-Oct-20 02:30 7.8
2019-Oct-20 02:25 7.8
2019-Oct-20 02:20 7.8
2019-Oct-20 02:10 210 8.3
2019-Oct-20 01:55 8.3
2019-Oct-20 01:50 8.3
2019-Oct-20 01:45 8.9
2019-Oct-20 01:40 8.9
2019-Oct-20 01:20 9.4
2019-Oct-20 01:15 9.4
2019-Oct-20 01:10 9.4
2019-Oct-20 00:55 10.0
2019-Oct-20 00:50 10.0
2019-Oct-20 00:45 10.0
2019-Oct-20 00:35 10.0
2019-Oct-20 00:30 10.0
2019-Oct-20 00:25 10.0
2019-Oct-20 00:20 10.6
2019-Oct-20 00:10 10.6
2019-Oct-20 00:00 10.6
2019-Oct-19 23:45 11.1
2019-Oct-19 23:40 11.1
2019-Oct-19 23:35 11.1
2019-Oct-19 23:30 11.7
2019-Oct-19 23:25 11.7
2019-Oct-19 23:20 11.7
2019-Oct-19 23:15 11.7
2019-Oct-19 23:10 12.2
2019-Oct-19 23:05 12.2
2019-Oct-19 23:00 12.2
2019-Oct-19 22:40 12.8
2019-Oct-19 22:30 13.3
2019-Oct-19 22:25 13.9
2019-Oct-19 22:20 13.9
2019-Oct-19 22:15 14.4
2019-Oct-19 22:10 210 14.4
2019-Oct-19 22:05 210 15.0
2019-Oct-19 22:00 210 15.0
2019-Oct-19 21:45 210 15.6
2019-Oct-19 21:35 206 16.1
2019-Oct-19 21:30 203 16.7
2019-Oct-19 21:15 196 1 gusting 5 16.7
2019-Oct-19 21:10 196 0 gusting 5 17.2
2019-Oct-19 21:05 215 0 gusting 5 17.2
2019-Oct-19 21:00 213 0 gusting 5 17.2